EDT,Max TemperatureF,Mean TemperatureF,Min TemperatureF,Max Dew PointF,MeanDew PointF,Min DewpointF,Max Humidity, Mean Humidity, Min Humidity, Max Sea Level PressureIn, Mean Sea Level PressureIn, Min Sea Level PressureIn, Max VisibilityMiles, Mean VisibilityMiles, Min VisibilityMiles, Max Wind SpeedMPH, Mean Wind SpeedMPH, Max Gust SpeedMPH,PrecipitationIn, CloudCover, Events, WindDirDegrees
2013-6-1,78,67,56,64,62,53,93,74,54,29.73,29.66,29.62,10,9,1,14,5,22,0.45,7,Rain-Thunderstorm,216
2013-6-2,62,50,37,58,44,36,93,77,61,30.04,29.83,29.60,10,9,2,20,8,26,0.06,7,Rain,334
2013-6-3,65,50,35,41,37,34,92,63,34,30.13,30.06,30.02,10,10,10,18,5,25,0.00,1,,311
2013-6-4,62,50,37,46,39,33,93,65,36,30.22,30.20,30.15,10,10,10,12,3,14,T,5,,32
2013-6-5,61,55,49,52,48,43,93,77,60,30.20,30.15,30.07,10,10,9,8,2,9,0.11,8,Rain,8
2013-6-6,70,60,50,48,44,42,86,62,37,30.06,29.99,29.93,10,10,10,13,4,16,0.00,6,,32
2013-6-7,72,59,46,48,44,35,93,62,31,29.99,29.95,29.90,10,10,10,14,3,18,0.00,3,,17
2013-6-8,72,59,45,53,46,39,93,67,40,30.06,29.99,29.93,10,10,10,13,3,16,0.00,4,,2
2013-6-9,81,64,47,55,51,43,93,66,39,30.11,30.03,29.94,10,10,10,16,6,23,0.00,4,,118
2013-6-10,72,65,57,60,55,49,90,71,52,29.94,29.83,29.79,10,10,6,15,3,23,T,6,,50
2013-6-11,80,68,56,62,58,54,100,74,48,29.90,29.85,29.79,10,6,0,16,4,21,0.00,6,Fog,357
2013-6-12,77,65,53,60,55,50,93,66,39,29.91,29.84,29.73,10,6,2,10,3,14,0.01,5,Rain,38
2013-6-13,69,62,54,55,52,49,89,76,63,30.03,29.88,29.73,10,10,10,20,8,26,0.00,4,,343
2013-6-14,69,57,44,49,44,36,93,63,32,30.14,30.08,30.05,10,10,10,12,4,15,0.00,1,,32
2013-6-15,73,59,44,61,51,40,80,60,40,30.04,29.96,29.81,10,10,10,7,2,12,0.25,6,Rain,209
2013-6-16,82,72,61,63,59,50,97,67,37,29.84,29.80,29.73,10,7,1,20,8,29,0.37,6,Rain-Thunderstorm,266
2013-6-17,68,63,58,56,54,52,78,68,58,30.00,29.91,29.83,10,10,10,13,6,18,T,5,Rain,16
2013-6-18,71,60,49,54,49,39,96,65,33,30.11,30.06,30.00,10,10,10,14,7,20,0.00,3,,40
2013-6-19,76,60,44,51,44,39,93,61,29,30.18,30.14,30.10,10,10,10,16,3,21,0.00,1,,26
2013-6-20,86,69,52,57,49,44,83,56,29,30.17,30.13,30.10,10,10,10,13,3,18,0.00,3,,249
2013-6-21,85,72,58,64,59,53,87,67,46,30.15,30.03,29.92,10,10,10,17,7,31,0.00,5,,206
2013-6-22,78,71,63,63,61,60,93,79,64,30.07,30.02,29.96,10,9,5,14,4,17,0.00,6,,13
2013-6-23,88,75,62,68,65,60,93,72,51,29.98,29.93,29.83,10,9,6,13,6,21,0.00,5,,207
2013-6-24,86,78,69,68,66,63,84,66,48,29.95,29.91,29.84,10,10,10,14,6,18,T,4,Rain,238
2013-6-25,84,75,66,66,63,62,87,69,51,29.86,29.83,29.80,10,10,10,18,5,23,0.00,5,,244
2013-6-26,87,74,60,67,64,59,97,71,45,29.82,29.78,29.73,10,10,7,12,3,14,0.00,4,,22
2013-6-27,81,72,62,65,63,61,93,74,54,29.77,29.72,29.66,10,10,6,18,4,23,0.01,5,Rain,30
2013-6-28,79,69,58,63,60,57,93,74,54,29.65,29.61,29.57,10,10,10,12,5,21,0.00,4,,37
2013-6-29,74,69,64,63,59,55,93,75,57,29.81,29.66,29.60,10,9,2,13,7,18,0.12,7,Rain,20
2013-6-30,77,66,55,57,50,39,84,56,27,30.04,29.93,29.81,10,10,9,16,7,22,0.00,5,,12